Regional Weather Roundup
Issued by NWS

Home | Current Version | Previous Version | Text Only | Print | Product List | Glossary On
Versions: 1 2 3 4 5 6 7 8 9 10 11 12 13 14 15 16 17 18 19 20 21 22 23 24 25 26 27 28 29 30 31 32 33 34 35 36 37 38 39 40 41 42 43 44 45 46 47 48 49 50
316
ASUS42 KFFC 151610
RWRGA
WEATHER ROUNDUP FOR GEORGIA
NATIONAL WEATHER SERVICE PEACHTREE CITY GA
1100 AM EST FRI NOV 15 2019

NOTE: "FAIR" INDICATES FEW OR NO CLOUDS BELOW 12,000 FEET WITH NO
SIGNIFICANT WEATHER AND/OR OBSTRUCTIONS TO VISIBILITY.

* = USE WITH CAUTION. THE STATIONS MARKED WITH AN ASTERISK MAY NOT
REPORT WEATHER SUCH AS PRECIPITATION, FOG, OR THUNDER AND ARE NOT
QUALITY CONTROLLED BY NWS.

THE REMARK "TC" DENOTES TEMPERATURE READING IN DEGREES CELSIUS.

GAZ001>058-151700-
NORTH GEORGIA

CITY           SKY/WX    TMP DP  RH WIND       PRES   REMARKS
ATLANTA        LGT RAIN  47  44  90 N10       30.14S FOG
ATHENS         LGT RAIN  46  40  79 NE9       30.15S
CHAMBLEE       LGT RAIN  46  45  96 N7        30.15S FOG
PEACHTREE CITY LGT RAIN  48  45  89 N9        30.14S FOG
ROME           CLOUDY    49  32  52 N10       30.19S
WEST ATLANTA   LGT RAIN  45  43  93 N6        30.15F FOG
GAINESVILLE    CLOUDY    46  46 100 E9        30.17R
CARTERSVILLE   CLOUDY    44  40  85 CALM      30.20S


CITY           SKY/WX    TMP DP  RH WIND       PRES   REMARKS
DALTON*        LGT RAIN  50  32  50 N9        30.21F
LAWRENCEVILLE* RAIN      45  45 100 NE9       30.15F FOG
MARIETTA       LGT RAIN  45  45 100 NW6       30.15S FOG
KENNESAW*      LGT RAIN  43  42  97 NW3       30.17S FOG
CANTON*        DRIZZLE   46  46 100 CALM      30.18R
BLAIRSVILLE*   CLOUDY    45  42  88 CALM      30.18F
$$

GAZ059>098-102>109-151700-
CENTRAL GEORGIA

CITY           SKY/WX    TMP DP  RH WIND       PRES   REMARKS
AUGUSTA-BUSH   LGT RAIN  50  47  89 N9        30.09F FOG
AUGUSTA-DANIEL   N/A    N/A N/A N/A MISG      30.11F
COLUMBUS       LGT RAIN  48  45  89 N6        30.12F FOG
MACON          LGT RAIN  50  47  89 N8        30.08F FOG
ROBINS AFB     DRIZZLE   49  49 100 N6        30.07F FOG


CITY           SKY/WX    TMP DP  RH WIND       PRES   REMARKS
LAGRANGE*      DRIZZLE   44  43  97 N9        30.13F
SYLVANIA*      LGT RAIN  51  50  96 NE10      30.04F
MILLEDGEVILLE* DRIZZLE   46  46 100 NE8       30.10F
$$

GAZ099>101-110>166-151700-
SOUTH GEORGIA

CITY           SKY/WX    TMP DP  RH WIND       PRES   REMARKS
SAVANNAH       LGT RAIN  53  52  96 NE16      30.00F
VALDOSTA       CLOUDY    50  47  89 VRB3      30.03F
ALMA           LGT RAIN  51  50  96 N5        30.02F FOG
ST SIMONS      CLOUDY    52  50  93 N12       29.99R
FT STEWART     CLOUDY    52  50  93 NE7       29.99F
ALBANY         LGT RAIN  49  47  93 NW6       30.10S FOG
HUNTER AFB     LGT RAIN  53  50  92 N13       29.97F
MOODY AFB      CLOUDY    50  50 100 N7        30.01F
BRUNSWICK      CLOUDY    50  49  97 N7        30.01S


CITY           SKY/WX    TMP DP  RH WIND       PRES   REMARKS
BAINBRIDGE*    DRIZZLE   49  48  97 N10       30.09F FOG
MOULTRIE*      CLOUDY    48  46  93 CALM      30.07R FOG
VIDALIA*       DRIZZLE   52  50  93 NE9G16    30.05S
WAYCROSS*      DRIZZLE   50  46  84 N6        30.02F
DOUGLAS*       CLOUDY    51  50  97 NE8       30.04F FOG
$$




USA.gov is the U.S. government's official web portal to all federal, state and local government web resources and services.